This demonstration page uses our WeatherBlox Daily Observations layout. Learn more.

Left ArrowRight Arrow

41.86663, -103.66717

Hourly Observations for November 27, 2021

Temp ( °F °C ) Dew Point ( °F °C ) Humidity (%) Winds ( mph kmh ) Pressure ( in mb ) Visibility ( mi km ) Precip ( " mm )
12:53 am 00:53 Clear 37 2.8 11 -11.7 34 34 WNW 5 7 30.01 1016 10 16 N/A
1:53 am 01:53 Clear 32 undefined 12 -11.1 43 43 WNW 6 9 30.04 1017 10 16 N/A
2:53 am 02:53 Clear 36 2.2 11 -11.7 35 35 W 6 9 30.05 1018 10 16 N/A
3:53 am 03:53 Clear 32 undefined 13 -10.6 45 45 WNW 9 15 30.09 1019 10 16 N/A
4:53 am 04:53 Clear 33 0.6 13 -10.6 43 43 NW 10 17 30.13 1020 10 16 N/A
5:53 am 05:53 Clear 30 -1.1 14 -10 51 51 NW 8 13 30.17 1022 10 16 N/A
6:53 am 06:53 Clear 28 -2.2 14 -10 56 56 NW 7 11 30.19 1022 10 16 N/A
7:53 am 07:53 Sunny 32 undefined 16 -8.9 52 52 NW 7 11 30.23 1024 10 16 N/A
8:53 am 08:53 Sunny 39 3.9 20 -6.7 46 46 NW 10 17 30.26 1025 10 16 N/A
9:53 am 09:53 Sunny 46 7.8 23 -5 40 40 WNW 10 17 30.26 1025 10 16 N/A
10:53 am 10:53 Sunny 52 11.1 29 -1.7 41 41 NW 17 28 30.24 1024 10 16 N/A
11:53 am 11:53 Sunny 53 11.7 27 -2.8 37 37 NNW 15 24 30.22 1023 10 16 N/A
12:53 pm 12:53 Sunny 53 11.7 22 -5.6 30 30 NNW 14 22 30.22 1023 10 16 N/A
1:53 pm 13:53 Sunny 54 12.2 22 -5.6 29 29 NW 9 15 30.21 1023 10 16 N/A
2:53 pm 14:53 Sunny 54 12.2 23 -5 30 30 NNW 9 15 30.20 1023 10 16 N/A
3:53 pm 15:53 Mostly Cloudy 49 9.4 23 -5 36 36 N 7 11 30.23 1024 10 16 N/A
4:53 pm 16:53 Clear 47 8.3 22 -5.6 37 37 N 5 7 30.24 1024 10 16 N/A
5:53 pm 17:53 Clear 40 4.4 21 -6.1 47 47 N N/A 30.29 1026 10 16 N/A
6:53 pm 18:53 Partly Cloudy 41 5 22 -5.6 47 47 N N/A 30.31 1026 10 16 N/A
7:53 pm 19:53 Clear 32 undefined 20 -6.7 61 61 NNE 6 9 30.33 1027 10 16 N/A
8:53 pm 20:53 Clear 32 undefined 20 -6.7 61 61 NNE 5 7 30.30 1026 10 16 N/A
9:53 pm 21:53 Clear 26 -3.3 18 -7.8 71 71 NNW 7 11 30.31 1026 10 16 N/A
10:53 pm 22:53 Clear 27 -2.8 18 -7.8 69 69 N N/A 30.27 1025 10 16 N/A
11:53 pm 23:53 Clear 26 -3.3 17 -8.3 69 69 N N/A 30.26 1025 10 16 N/A

Powered by AerisWeather